Overview Statistics Trail Chart Weather Telemetry Raw packets
 

This is the latest recevied weather packets stored in our database for station/object 4S6DRJ-13. If no packets are shown the sender has not sent any weather packets the latest 10 day(s).

<< 560 561 562 563 564 565 >>
Time Temp. Humidity Pressure Rain* Wind** Luminosity Snow
1787584460 27.78° C 85% 1011 hPa 0 mm 1.34 m/s, 238° 0 W/m² -
1787584399 27.78° C 85% 1011 hPa 0 mm 0.45 m/s, 247° 0 W/m² -
1787584338 27.78° C 85% 1011 hPa 0 mm 1.34 m/s, 213° 0 W/m² -
1787584277 27.78° C 85% 1010.6 hPa 0 mm 1.34 m/s, 236° 0 W/m² -
1787584216 27.78° C 85% 1011.1 hPa 0 mm 0.45 m/s, 215° 0 W/m² -
1787584155 27.78° C 85% 1010.8 hPa 0 mm 0.89 m/s, 241° 0 W/m² -
1787584094 28.33° C 85% 1010.8 hPa 0 mm 1.34 m/s, 233° 0 W/m² -
1787584033 28.33° C 85% 1011 hPa 0 mm 0 m/s 0 W/m² -
1787583972 28.33° C 85% 1010.9 hPa 0 mm 1.79 m/s, 227° 0 W/m² -
1787583911 28.33° C 85% 1010.8 hPa 0 mm 0.45 m/s, 270° 0 W/m² -
1787583850 28.33° C 85% 1010.9 hPa 0 mm 1.79 m/s, 271° 0 W/m² -
1787583789 28.33° C 85% 1010.8 hPa 0 mm 0.89 m/s, 255° 0 W/m² -
1787583728 28.33° C 85% 1010.8 hPa 0 mm 0.45 m/s, 167° 0 W/m² -
1787583667 28.33° C 85% 1010.8 hPa 0 mm 0.89 m/s, 186° 0 W/m² -
1787583606 28.33° C 85% 1010.8 hPa 0 mm 1.79 m/s, 171° 0 W/m² -
1787583546 28.33° C 85% 1010.9 hPa 0 mm 0.89 m/s, 306° 0 W/m² -
1787583484 28.33° C 85% 1010.8 hPa 0 mm 1.34 m/s, 9° 0 W/m² -
1787583423 28.33° C 85% 1010.8 hPa 0 mm 0.89 m/s, 221° 0 W/m² -
1787583362 28.33° C 85% 1010.9 hPa 0 mm 0.45 m/s, 249° 0 W/m² -
1787583301 28.33° C 85% 1010.8 hPa 0 mm 0.45 m/s, 227° 0 W/m² -
1787583240 28.33° C 85% 1010.8 hPa 0 mm 0.89 m/s, 203° 0 W/m² -
1787583179 28.33° C 84% 1010.8 hPa 0 mm 1.34 m/s, 216° 0 W/m² -
1787583118 28.33° C 84% 1010.8 hPa 0 mm 0.45 m/s, 289° 0 W/m² -
1787583057 28.33° C 84% 1010.7 hPa 0 mm 0.89 m/s, 195° 0 W/m² -
1787582996 28.33° C 84% 1010.7 hPa 0 mm 0.89 m/s, 227° 0 W/m² -

* Rain latest hour (hover to see other rain measurements)
** Current wind speed in m/s (hover to see current wind gust speed)